Hourly Data Report for October 01, 2017

All times are specified in Local Standard Time (LST). Add 1 hour to adjust for Daylight Saving Time where and when it is observed.

KUGAARUK CLIMATE
NUNAVUT

68°32'15.060" N
89°47'47.020" W
15.80 m
2303094
71407
NBB

Download Data

Hourly Data (October 2017)
Hourly Data Report for October 1, 2017
Temp Definition
°C
Dew Point Temp Definition
°C
Rel Hum Definition
%
Wind Dir Definition
10's deg

Wind Spd Definition
km/h
Visibility Definition
km
Stn Press Definition
kPa
Hmdx Definition


Wind Chill Definition


Weather Definition


TIME
00:00 -4.1 -5.4 90 26 19   101.93   -10 LegendNANA
01:00 -3.8 -5.7 87 27 25   101.93   -11 LegendNANA
02:00 -4.1 -5.2 92 27 23   101.94   -11 LegendNANA
03:00 -4.0 -5.7 88 29 19   101.97   -10 LegendNANA
04:00 -3.9 -5.6 88 29 16   101.99   -9 LegendNANA
05:00 -3.9 -5.6 88 28 14   101.98   -9 LegendNANA
06:00 -3.9 -5.7 87 28 13   101.99   -9 LegendNANA
07:00 -3.7 -5.6 86 27 13   101.95   -9 LegendNANA
08:00 -3.6 -5.4 87 24 16   101.95   -9 LegendNANA
09:00 -3.4 -5.2 87 25 18   101.92   -9 LegendNANA
10:00 -3.6 -5.3 88 23 18   101.91   -9 LegendNANA
11:00 -3.7 -6.4 82 23 16   101.88   -9 LegendNANA
12:00 -3.7 -6.8 79 20 13   101.83   -9 LegendNANA
13:00 -3.6 -6.9 78 20 3   101.78   -5 LegendNANA
14:00 -3.2 -7.0 75 22 7   101.72   -6 LegendNANA
15:00 -2.7 -6.7 74 9 4   101.62   -4 LegendNANA
16:00 -2.1 -6.9 70 20 12   101.54   -6 LegendNANA
17:00 -1.7 -6.9 68 20 20   101.45   -7 LegendNANA
18:00 -1.5 -6.4 69 20 17   101.35   -7 LegendNANA
19:00 -1.4 -6.6 67 20 31   101.25   -8 LegendNANA
20:00 -2.3 -3.6 91 20 25   101.11   -9 LegendNANA
21:00 -1.5 -2.5 93 19 31   100.93   -9 LegendNANA
22:00 -1.0 -2.2 92 19 33   100.78   -8 LegendNANA
23:00 -0.6 -2.1 90 19 36   100.62   -8 LegendNANA

Notes on Data Quality.

Legend

  • E = Estimated
  • M = Missing
  • NA = Not Available
  • ‡ = Partner data that is not subject to review by the National Climate Archives
Date modified: